Location: Cazarilh
(42.9578°N, 0.5819°E)
Time: 07:40:58
(UTC+00:00)

CZ-4C R/B - Pass Details

Date: 11 December 2019
Orbit: 646 x 1356 km, 63.4° (Epoch: 28 January)

Event Time Altitude Azimuth Distance (km) Brightness Sun altitude
Exits shadow 06:06:43 15° 276° (W) 2,866 4.3 -12.6°
Maximum altitude 06:09:24 18° 253° (WSW) 2,740 4.4 -12.2°
Drops below altitude 10° 06:14:24 10° 215° (SW) 3,365 5.2 -11.3°
Sets 06:18:29 0° 198° (SSW) 4,366 5.9 -10.6°
